Wind_Speed
9 10 9 8 7 4 1 1 2 2 2 4 2 1 0 1 1 2 3 3 2 3 2 3 5 2 4 7 9 7 6 2 2 3 2 4 25 33 21 24 31 31 31 29 29 28 27 27 26 26 25 25 24 24 23 22 22 22 21 20 20 20 19 18 17 16 16 17 18 20 21 20 18 17 16 16 16 18 18 18 17 16 15 14 13 11 11 11 11 11 10 10 10 11 11 9 9
11 10 9 7 5 3 2 1 3 2 3 4 1 1 1 1 3 2 3 3 2 4 5 5 6 4 8 9 7 5 8 7 3 4 3 17 29 24 20 27 32 33 32 30 30 29 28 27 27 27 26 25 25 24 23 22 23 21 20 20 19 19 18 18 17 16 16 15 16 17 17 17 16 16 16 16 16 17 16 16 16 15 14 13 11 11 11 12 12 12 12 12 12 12 11 11 11
11 10 9 6 3 1 1 2 3 2 3 3 1 2 1 2 3 4 4 4 5 7 6 6 4 3 5 6 6 4 4 7 7 7 8 21 21 17 24 29 33 34 32 32 30 30 30 28 27 27 26 26 25 24 24 23 22 21 20 19 19 18 18 18 17 16 15 15 15 14 15 15 16 16 16 16 16 16 15 15 16 15 13 12 11 11 12 13 13 13 13 13 13 12 12 11 12
10 8 7 5 1 1 2 3 2 2 3 1 0 2 0 1 4 4 4 5 6 5 4 3 2 3 4 8 6 4 4 4 6 7 8 15 16 23 29 30 34 33 32 32 31 32 31 28 28 27 27 26 25 24 23 23 22 21 20 18 18 17 17 17 16 16 15 15 15 15 15 15 16 16 16 16 16 16 14 15 16 14 13 11 11 12 13 14 13 13 13 13 13 13 12 11 12
9 6 6 3 2 1 2 2 1 3 2 2 1 2 1 2 4 3 4 4 5 4 3 2 3 2 4 5 2 3 5 6 8 9 11 14 21 29 30 32 34 33 33 31 32 33 31 29 28 27 27 26 25 24 23 22 22 20 19 18 17 16 16 15 14 15 15 16 16 15 15 15 16 16 16 16 16 16 15 16 16 14 12 12 12 13 13 13 13 12 12 13 13 13 12 12 12
9 6 6 5 2 0 2 3 3 3 1 2 2 2 2 3 4 3 4 4 4 3 4 3 2 3 3 2 2 4 7 8 9 11 15 20 25 30 30 32 33 32 32 31 32 33 31 29 28 28 27 26 25 24 22 22 21 19 18 17 16 15 14 14 14 14 15 16 16 15 15 16 16 17 16 16 16 16 16 16 15 12 12 13 13 13 13 12 12 11 11 11 12 12 12 12 12
7 2 2 2 2 1 3 3 3 1 1 0 3 2 3 3 4 3 4 3 2 4 5 4 2 4 2 1 2 2 9 14 12 15 21 25 27 30 31 31 32 31 31 31 33 33 31 28 28 28 27 26 25 23 22 21 20 19 18 17 16 15 14 12 12 14 15 16 16 15 16 17 17 17 17 17 17 16 16 17 15 12 11 12 13 13 12 11 10 9 9 10 11 11 12 12 12
4 0 0 1 2 2 3 3 2 1 1 2 1 1 3 3 3 1 2 1 1 3 4 5 3 4 3 3 3 5 14 19 18 25 27 27 29 30 32 30 31 30 31 32 33 33 30 28 28 27 27 26 24 23 22 22 20 19 18 17 16 14 13 12 11 13 15 16 15 15 16 16 17 17 17 17 17 16 16 16 15 13 11 11 12 12 11 9 8 8 8 8 9 10 10 11 10
2 0 0 1 1 3 2 3 2 0 1 3 2 3 1 2 3 1 3 2 1 1 4 4 3 4 5 8 5 5 14 23 25 30 28 28 30 30 31 30 31 30 30 32 33 33 30 28 28 27 27 26 24 23 22 21 20 19 18 17 16 14 13 12 11 12 14 15 15 15 16 17 17 17 17 17 16 15 14 13 13 12 11 10 11 11 10 9 9 8 8 8 8 8 8 9 9
1 1 0 1 2 3 2 2 1 1 1 2 2 4 3 2 3 2 2 2 1 1 4 3 4 6 6 8 4 3 11 26 29 27 26 27 28 27 29 28 30 31 30 32 34 33 30 28 28 27 27 25 24 23 22 21 20 19 18 17 16 15 14 12 11 12 15 15 15 14 15 17 17 16 16 16 15 14 12 11 11 11 11 11 11 11 9 8 8 8 7 7 7 6 7 7 7
2 1 1 1 2 2 1 2 1 2 2 2 2 4 2 2 1 3 2 2 2 2 3 3 5 5 5 5 2 3 10 25 27 25 25 26 25 26 26 26 28 29 31 33 34 33 30 28 27 27 26 25 24 23 22 21 20 20 19 18 17 16 14 13 12 13 15 15 14 14 15 16 16 16 15 15 14 13 12 12 10 10 11 10 10 9 8 7 7 6 5 5 5 5 6 6 6
1 2 1 2 2 1 2 2 1 4 4 1 1 3 1 1 1 1 2 2 2 3 3 2 3 2 4 4 1 2 9 20 24 25 24 24 25 25 26 25 26 27 30 33 34 32 30 29 28 27 25 24 23 22 21 20 20 20 19 18 17 17 15 14 13 13 14 13 14 14 14 15 16 15 14 14 13 13 13 12 10 10 10 10 8 8 7 7 5 5 4 3 4 4 5 5 5
2 2 1 1 1 3 2 2 2 3 4 1 1 2 0 1 0 3 2 2 2 2 2 2 3 3 4 2 0 1 7 17 22 24 24 24 24 24 25 23 24 26 28 32 34 32 30 29 28 27 25 24 23 22 21 20 20 20 20 18 17 17 16 15 14 14 13 13 13 13 13 14 15 15 14 14 13 13 13 12 11 10 10 10 9 8 7 7 5 4 3 2 3 3 4 4 4
4 2 3 1 1 3 2 2 2 1 2 4 2 0 1 1 3 3 3 4 2 2 2 2 4 5 2 2 1 1 8 19 20 23 24 23 23 24 23 21 22 24 27 31 33 31 30 30 29 27 25 24 23 21 21 20 20 20 19 18 18 17 16 15 15 14 13 13 13 12 13 13 13 13 13 13 13 13 13 12 11 10 10 11 10 8 8 6 5 3 3 3 2 2 3 4 4
7 1 3 2 2 2 1 2 1 2 1 4 1 2 2 3 3 1 3 4 2 2 4 2 3 3 2 4 3 2 12 21 20 21 22 22 22 22 22 20 21 23 26 30 32 31 30 29 29 27 25 24 23 22 21 20 20 20 19 18 18 17 17 15 15 15 14 13 13 13 13 12 11 11 13 13 12 12 12 11 11 10 10 11 10 8 8 6 5 4 3 3 2 2 2 4 4
6 2 2 2 3 3 1 2 2 2 2 3 1 2 3 4 4 2 4 5 4 3 3 2 3 4 4 5 6 8 17 22 20 22 22 22 20 20 21 20 20 22 25 29 30 30 29 29 28 27 25 23 22 22 21 20 20 19 19 18 18 18 17 16 15 14 14 14 14 14 13 13 11 11 12 12 12 11 11 12 11 10 9 10 9 8 8 6 5 4 3 2 2 2 2 2 2
3 3 2 3 4 4 4 4 3 3 3 3 2 3 4 2 3 2 3 5 5 4 3 2 3 5 5 7 13 17 21 22 21 22 22 21 19 20 20 19 19 20 23 26 28 29 29 28 28 27 25 23 23 22 21 20 19 18 18 18 18 18 17 16 15 14 15 15 14 14 14 13 12 11 12 12 12 11 11 12 11 10 9 9 9 8 8 7 5 4 3 3 3 3 3 2 1
4 2 3 3 3 4 5 7 6 5 3 5 4 6 5 4 4 2 3 4 4 4 3 2 4 4 6 14 19 18 22 23 22 22 19 18 17 18 18 19 20 19 22 24 26 28 28 28 28 28 25 23 23 22 22 21 19 18 18 19 19 19 18 17 16 16 15 16 15 15 15 14 13 12 12 13 12 12 12 11 11 10 10 10 9 9 8 7 6 4 4 4 3 3 3 4 4
5 2 4 3 5 4 5 7 7 6 5 6 5 5 4 3 5 2 3 4 5 6 3 3 5 5 8 16 18 19 24 22 18 17 17 17 16 15 16 18 19 19 22 24 25 27 27 28 27 27 26 24 24 23 22 22 21 19 19 20 20 19 18 18 17 17 16 16 16 16 16 15 14 13 12 12 12 13 13 12 12 11 10 10 10 10 9 8 7 6 5 5 4 4 4 5 5
4 3 4 4 6 4 5 9 9 7 8 8 5 5 4 3 4 2 4 5 5 6 3 4 5 5 8 12 16 19 20 18 15 10 12 17 16 15 17 19 20 20 23 25 26 27 27 28 27 27 27 25 25 24 23 23 22 21 21 20 20 19 19 19 18 18 18 17 17 17 17 16 15 14 13 12 12 13 13 13 13 12 11 10 10 10 11 10 9 8 7 6 6 5 6 7 6
2 4 6 6 5 5 7 10 10 8 10 10 6 6 4 4 3 3 6 6 3 5 6 7 8 9 9 12 16 18 19 18 17 11 10 14 15 16 18 18 18 20 23 24 25 27 28 28 28 28 28 27 26 25 24 24 23 22 22 21 20 20 20 20 20 19 20 19 19 18 17 17 16 16 14 14 14 14 14 14 14 14 12 11 11 11 12 11 10 10 9 8 7 7 8 8 8
2 2 8 9 7 6 7 9 10 8 8 8 8 8 5 3 2 4 8 5 4 5 6 9 10 9 9 11 16 16 15 16 17 12 9 10 13 15 16 15 15 17 20 24 26 27 28 29 29 29 28 28 27 26 25 24 24 23 22 22 21 21 22 22 21 21 21 21 21 19 18 18 18 17 16 16 16 16 16 16 16 15 14 13 12 13 13 12 11 10 9 9 8 8 8 8 9
5 1 7 11 8 8 8 7 10 9 8 9 9 8 5 5 2 3 7 5 6 7 9 11 9 9 8 10 15 14 11 10 13 13 8 11 12 13 17 18 19 20 21 25 26 26 28 28 27 28 28 28 27 26 25 24 24 24 23 23 23 23 24 24 23 23 23 22 22 21 20 20 20 20 19 18 17 17 17 17 17 16 15 14 13 13 14 13 12 11 11 10 10 9 9 9 10
10 6 8 9 9 10 9 8 9 10 10 9 8 7 7 8 5 3 5 5 5 7 10 11 9 11 11 10 12 13 11 10 14 15 13 14 15 15 18 22 23 21 22 24 25 25 26 28 27 27 27 27 27 27 25 25 25 24 24 25 25 25 25 25 24 24 24 23 23 22 22 22 22 22 21 20 19 19 19 18 17 16 16 14 13 13 13 13 12 12 11 11 11 12 12 11 11
9 11 10 8 7 10 10 8 8 8 7 7 9 9 8 8 8 6 7 6 6 8 11 10 9 10 9 8 10 12 12 12 15 16 17 16 15 17 19 23 23 20 23 25 25 25 25 27 27 26 27 27 28 27 27 26 25 25 25 26 26 26 27 26 25 25 25 24 24 24 24 24 24 25 24 23 22 21 21 21 19 18 17 16 15 14 14 13 12 12 12 12 13 14 15 13 11
7 12 10 8 8 9 10 8 8 7 5 7 9 7 7 8 8 5 6 8 9 10 11 10 10 9 8 8 9 11 12 13 15 16 18 16 14 16 18 21 22 21 24 24 25 27 26 26 27 27 26 26 28 28 29 28 27 26 26 26 26 26 27 27 26 25 25 25 25 25 25 26 26 26 26 26 25 24 23 23 22 20 20 19 18 17 16 15 14 14 14 13 13 14 16 14 12
6 12 10 11 11 7 9 9 7 6 5 7 9 6 7 7 6 3 6 7 11 11 11 9 9 9 8 8 7 9 11 14 17 16 15 13 13 16 17 21 23 23 24 23 25 28 27 26 27 27 26 26 28 29 30 30 28 27 27 27 27 27 27 27 26 26 25 26 26 26 26 27 28 27 27 27 27 26 25 24 23 22 22 21 19 18 17 16 16 15 15 15 14 14 14 13 12
4 11 9 8 9 5 7 10 7 4 3 6 9 6 4 2 2 6 9 8 12 12 11 9 9 8 8 9 8 6 9 14 17 17 15 15 17 20 21 23 24 25 25 25 26 26 27 27 25 25 26 28 29 29 30 30 29 28 28 28 28 27 26 27 27 27 26 27 27 27 27 28 28 27 27 28 28 28 27 26 25 24 25 23 22 20 19 18 17 17 17 18 16 14 14 14 13
4 11 10 3 6 4 4 6 6 5 3 7 9 6 0 1 4 8 9 10 11 12 11 9 8 7 7 8 7 5 9 14 16 17 19 21 23 25 25 25 25 26 27 27 26 26 28 26 23 25 28 29 29 29 29 29 28 27 28 28 27 26 26 27 27 27 27 27 27 28 28 28 27 27 28 29 29 30 29 28 27 27 26 25 24 23 23 22 21 20 20 20 18 15 15 16 15
1 7 9 4 6 2 7 4 4 5 5 9 8 4 4 6 8 8 9 11 11 10 10 8 7 6 6 7 6 6 10 14 15 18 22 23 24 26 27 26 26 26 24 24 26 28 29 25 24 28 29 28 29 28 28 28 28 27 27 27 26 25 26 27 27 27 26 26 28 28 28 27 27 27 28 29 30 31 31 30 30 29 28 27 25 25 25 25 23 23 21 21 20 18 18 18 18
1 5 5 4 5 4 8 5 5 5 3 7 8 3 7 7 9 8 8 12 12 11 9 8 8 6 6 6 6 6 9 15 19 22 24 25 27 27 26 25 26 26 21 21 25 28 29 28 26 27 27 27 28 28 28 28 27 27 27 27 27 26 26 27 27 27 27 26 27 27 27 27 27 28 28 29 30 31 31 31 31 30 29 27 26 25 25 24 23 23 21 21 20 19 20 19 19
0 5 1 2 5 4 7 6 8 7 2 4 7 2 5 6 9 9 7 11 11 11 9 9 8 7 7 6 5 5 6 12 18 22 25 27 29 27 26 24 24 25 21 21 25 26 27 28 25 24 26 28 27 27 27 26 27 27 27 27 27 27 27 27 27 27 26 26 26 26 27 27 28 28 27 27 28 29 30 31 31 30 28 27 25 24 24 24 23 23 21 20 20 20 20 19 17
3 4 4 3 5 3 5 5 7 6 3 3 4 4 3 4 8 8 7 10 10 10 9 9 8 7 7 6 5 5 5 6 10 16 21 23 25 26 26 25 24 25 21 19 23 23 23 25 26 25 27 28 27 27 26 26 27 26 27 27 27 27 26 26 25 26 27 27 27 27 27 28 28 28 27 27 27 28 29 29 29 28 28 26 25 24 24 24 23 22 20 19 20 20 19 17 15
5 3 3 1 4 6 4 3 5 4 3 5 5 5 4 4 8 8 7 8 9 9 9 8 8 6 5 5 5 5 5 5 5 12 18 19 20 23 25 26 24 24 20 18 22 23 20 21 23 23 26 28 26 27 27 27 27 27 27 27 27 27 27 26 25 26 27 28 28 27 26 27 28 27 27 27 27 27 28 28 28 27 27 25 24 24 24 23 22 21 21 20 19 18 17 16 14
3 3 5 2 3 7 6 4 4 6 3 5 8 4 5 3 8 8 6 6 8 9 9 7 6 5 5 5 5 5 5 6 7 12 17 18 18 19 22 25 23 21 19 15 15 12 10 13 18 21 25 26 25 27 27 26 27 27 27 27 27 28 27 26 24 25 26 27 27 26 26 26 26 26 26 26 26 26 27 26 26 26 25 23 23 23 23 22 22 22 21 20 19 17 15 14 13
2 2 5 7 6 6 6 5 5 9 6 3 7 5 3 7 9 7 3 4 7 7 6 6 4 4 5 5 4 5 5 6 8 11 13 14 17 16 15 16 14 8 5 6 6 8 8 12 19 23 26 26 24 26 26 26 26 26 26 26 27 27 27 25 23 24 24 25 25 25 25 24 24 25 25 25 26 25 25 25 24 24 23 22 22 23 23 23 23 22 20 19 19 18 16 14 13
3 4 3 5 7 6 6 5 4 9 6 1 5 7 6 9 7 3 1 2 7 6 5 5 4 4 5 6 5 5 6 5 5 6 7 8 11 8 5 7 6 5 7 5 6 8 12 19 22 23 26 27 26 27 28 28 28 26 25 25 26 26 25 24 23 24 24 24 23 23 24 24 24 24 24 25 25 25 24 24 24 23 21 21 22 23 23 23 22 20 19 19 19 18 16 15 14
4 3 3 2 4 5 6 4 1 5 6 3 5 9 3 2 3 4 3 4 6 6 6 5 4 5 4 5 6 5 3 3 2 1 1 2 1 6 9 9 11 12 12 15 18 18 18 19 22 23 25 28 28 27 29 30 31 29 27 27 26 25 24 24 24 23 23 23 22 22 23 24 24 24 23 23 23 23 24 24 25 24 22 21 21 22 22 21 21 19 18 18 18 17 16 14 12
5 3 3 4 2 2 5 3 4 5 5 2 6 10 5 4 5 5 5 2 0 1 5 5 5 6 4 5 5 4 1 3 4 5 4 6 12 14 12 13 15 16 17 18 18 19 19 19 21 22 24 28 28 28 29 30 29 28 25 23 23 23 23 23 23 22 22 22 22 21 21 22 23 23 22 22 22 22 22 22 24 25 24 21 21 22 22 21 21 20 19 19 17 16 15 13 12
4 4 4 5 2 3 4 3 5 6 4 6 8 9 4 5 5 5 6 4 3 4 6 5 4 5 4 5 3 3 3 4 5 5 6 13 19 18 17 17 16 16 18 18 19 21 21 19 19 19 22 25 26 27 28 25 22 21 20 19 18 19 19 20 21 21 20 20 20 20 20 20 21 22 22 22 22 21 21 20 21 24 24 22 22 22 22 22 22 21 21 20 18 15 15 15 14
4 3 3 4 4 2 4 2 7 8 5 8 11 8 4 5 4 4 5 4 4 5 7 7 3 2 2 1 2 2 4 5 6 7 6 11 14 15 17 17 16 17 19 19 19 19 18 17 15 15 17 21 23 24 23 20 18 19 19 18 16 16 16 16 18 20 20 19 19 20 20 19 19 21 22 22 22 21 20 20 20 23 23 21 21 21 22 22 22 22 22 21 20 17 16 15 15
5 3 4 5 4 2 3 8 10 7 1 5 8 7 4 5 3 1 4 5 5 5 5 7 2 3 3 2 3 3 5 5 6 7 5 8 11 13 16 17 17 19 20 18 15 14 15 14 12 12 13 16 19 21 20 19 19 20 21 20 18 17 17 18 20 22 21 20 19 19 19 18 18 19 21 21 21 21 20 19 19 21 21 19 20 20 22 22 21 22 22 21 21 19 17 15 15
4 4 5 5 2 2 3 8 7 5 5 5 2 6 2 5 4 3 4 5 4 4 3 2 1 4 4 2 2 3 5 6 7 7 5 5 6 8 11 14 16 18 17 13 10 12 14 13 11 10 11 12 15 18 19 19 20 22 22 21 20 20 20 21 23 23 22 20 18 18 18 19 19 19 21 21 21 20 20 19 19 20 19 18 18 20 21 22 22 22 22 22 21 20 19 17 16
4 7 4 2 0 1 1 3 2 5 5 4 4 7 5 2 4 3 4 3 1 3 0 3 1 4 4 3 3 3 5 7 8 7 5 5 3 1 2 6 9 12 11 9 7 8 10 10 8 6 7 10 12 15 18 19 19 20 21 21 21 21 22 22 22 21 21 20 18 17 18 17 17 19 20 21 21 21 20 19 19 19 18 18 18 19 20 21 22 21 20 20 21 21 22 21 20
7 7 3 4 3 2 1 1 2 2 5 5 2 8 6 2 5 3 3 0 2 2 4 4 3 4 4 4 3 3 5 7 8 6 4 3 3 3 2 5 8 10 6 1 0 3 6 7 6 4 5 8 11 13 15 17 19 19 19 20 21 21 22 22 20 19 19 18 17 17 16 15 15 16 18 19 20 20 20 19 19 18 17 17 18 18 19 19 20 20 19 19 19 21 23 23 23
7 4 3 5 4 2 2 1 2 1 6 5 7 6 5 2 5 2 1 1 3 4 5 3 2 2 2 4 4 5 5 6 6 4 3 3 3 3 1 4 8 8 5 5 7 5 5 7 9 10 7 7 11 13 14 15 17 18 19 20 20 19 19 18 17 17 16 16 16 15 14 14 14 15 16 17 18 19 19 18 18 18 17 17 17 18 18 18 19 20 20 20 20 19 21 22 23
4 5 5 6 6 5 4 1 2 2 2 5 10 5 5 2 4 3 3 3 4 5 3 1 2 3 4 5 6 6 5 5 5 3 2 3 3 4 5 5 9 10 8 10 12 11 10 11 13 14 12 10 10 12 13 14 15 17 19 19 16 14 14 16 17 17 17 15 15 15 15 15 15 16 16 15 17 18 18 17 17 17 17 17 17 18 18 17 19 20 20 21 21 19 18 20 24
4 5 4 5 6 5 5 5 4 4 3 2 4 5 7 3 3 5 6 4 4 5 4 4 4 4 5 6 6 5 4 4 3 3 4 5 6 8 11 12 15 17 16 17 17 17 18 17 16 17 18 16 13 11 11 12 13 15 14 12 11 11 13 16 18 19 19 18 17 17 16 15 15 15 15 14 15 16 16 15 15 16 16 16 16 16 17 16 17 19 20 21 21 20 18 18 22
5 4 4 4 4 4 3 4 4 4 1 1 1 5 6 2 3 4 5 2 4 5 4 6 7 6 6 6 5 4 3 3 3 3 3 4 5 8 12 14 17 20 19 19 19 18 18 16 15 17 19 21 21 18 13 12 12 12 10 9 11 12 14 18 20 20 21 20 19 18 17 16 15 15 15 14 14 14 15 15 15 15 15 17 17 16 16 15 16 17 19 20 21 20 19 18 19
4 2 2 2 1 2 3 2 3 3 3 2 1 5 4 2 4 1 4 6 6 7 6 6 8 8 6 5 5 5 4 3 3 4 4 4 4 6 10 11 14 18 18 18 18 16 14 13 13 16 18 21 27 29 24 19 15 11 10 11 13 12 13 17 19 20 20 20 19 18 18 16 16 16 16 16 14 13 14 15 16 16 15 16 16 16 15 15 16 19 20 20 20 19 19 19 18
2 4 4 3 2 3 2 2 3 3 2 1 2 5 3 2 2 3 7 8 7 8 7 6 7 6 5 6 5 5 4 4 4 4 4 6 6 5 6 8 12 16 17 19 19 16 14 14 15 19 21 22 26 30 27 24 23 18 14 14 15 13 13 15 17 18 18 18 18 18 18 16 15 15 15 15 14 13 15 16 18 16 14 14 14 15 16 17 18 21 22 23 22 19 19 20 19
2 2 4 1 2 5 2 0 4 4 2 2 3 2 2 3 4 5 7 9 8 8 8 8 7 5 5 6 4 4 5 5 6 6 5 6 9 8 6 8 12 14 16 17 18 18 17 19 22 25 26 24 21 18 15 14 17 19 18 16 16 15 14 14 15 16 16 16 17 17 17 17 17 16 14 14 13 14 16 17 18 17 14 13 13 14 16 18 19 21 23 23 23 20 19 20 20
1 2 2 3 3 7 4 2 3 4 5 2 2 3 3 4 4 4 6 9 7 7 8 8 7 7 7 6 5 5 5 6 6 6 6 8 10 10 8 10 11 11 12 14 16 18 21 24 24 24 22 19 14 10 9 10 11 14 16 15 14 14 14 14 14 15 15 15 16 16 17 17 17 17 15 13 13 13 15 16 17 16 13 13 14 14 15 16 17 19 21 21 22 20 18 19 19
3 3 3 3 2 5 4 3 3 4 4 1 2 4 3 3 2 2 5 7 6 6 7 7 7 7 7 6 6 6 6 6 6 6 6 7 8 9 9 10 11 11 12 14 16 20 24 24 22 21 19 14 10 8 8 11 13 13 14 14 13 13 13 14 14 14 15 16 16 17 18 17 17 16 15 15 14 14 15 15 15 15 13 13 14 15 15 16 17 18 19 20 20 20 19 19 20
4 1 2 2 3 2 2 3 2 2 3 0 2 2 1 3 2 0 3 5 5 6 6 7 7 6 6 6 5 5 5 5 5 5 5 5 7 9 10 11 12 14 16 16 18 22 22 19 20 21 19 15 11 8 8 9 11 12 13 14 15 14 13 14 14 15 16 17 18 18 18 18 16 15 15 16 15 14 15 15 14 14 14 14 15 16 16 16 17 17 18 18 18 19 19 20 20
4 2 3 3 2 1 1 2 3 4 3 2 1 2 1 3 3 3 5 4 6 7 6 7 6 5 5 4 4 4 4 4 4 4 3 5 8 9 10 11 13 15 18 18 21 23 20 17 20 21 19 16 13 9 8 8 10 12 13 14 16 15 14 14 14 15 16 17 18 18 19 19 17 15 15 16 16 16 16 15 14 14 15 16 16 17 16 16 17 18 17 17 17 18 19 19 20
4 5 5 3 2 2 2 1 1 4 4 3 2 1 4 4 2 4 6 5 5 7 7 6 5 5 5 4 3 3 4 4 4 3 3 4 6 8 9 11 13 15 17 19 21 21 20 20 23 22 18 16 14 12 10 9 11 13 14 13 13 14 15 15 14 15 16 17 18 18 19 19 18 17 15 15 16 17 17 17 15 14 16 17 18 18 17 16 17 18 18 17 17 18 19 19 20
4 2 1 0 1 2 4 2 3 2 4 4 4 2 4 4 2 4 5 6 6 7 8 7 5 5 5 4 4 3 4 4 3 3 3 3 4 5 7 9 13 16 18 20 20 19 19 23 25 23 20 17 16 16 13 11 11 13 15 14 13 15 15 15 15 16 17 17 17 18 18 19 19 18 17 16 16 16 16 17 17 16 16 17 18 18 17 17 18 19 19 18 18 19 20 20 19
Wind_Direction
154 149 153 162 167 174 241 49 49 351 64 77 55 336 262 185 289 291 297 313 315 275 258 281 287 330 87 102 110 92 45 342 213 152 193 143 147 152 158 161 161 159 160 159 156 157 158 157 155 154 153 151 149 148 148 148 145 145 145 145 144 144 144 144 145 140 136 135 138 145 146 146 143 139 136 137 138 138 139 142 143 141 138 137 142 137 123 114 109 109 110 113 116 110 106 113 119
156 152 163 170 176 175 267 124 82 355 56 66 24 327 0 7 343 295 278 299 264 271 305 300 298 34 88 112 115 87 48 21 64 102 95 128 139 149 162 164 161 160 161 160 158 158 160 159 157 156 155 153 152 151 150 149 146 146 147 147 148 148 147 148 148 144 141 141 141 144 146 146 143 141 140 141 142 140 142 143 143 142 140 140 143 135 123 115 111 112 115 118 119 115 108 113 122
165 164 165 169 192 187 298 61 80 34 66 76 335 292 58 44 296 266 255 255 254 273 295 287 299 35 71 88 67 53 63 35 68 82 110 133 136 152 165 165 162 161 161 160 160 160 161 160 159 157 157 156 154 154 152 149 147 147 149 150 151 151 152 152 151 147 146 146 145 144 146 148 146 146 147 147 146 144 145 143 141 142 141 141 141 133 124 119 116 116 116 117 117 116 112 113 121
172 180 175 165 346 359 43 51 106 93 74 113 275 285 120 178 244 265 262 253 264 273 281 293 34 52 53 79 78 64 93 76 85 95 126 145 147 156 162 164 162 161 161 162 162 162 162 161 160 159 159 158 156 157 154 150 148 149 152 152 154 154 156 158 156 153 151 152 151 151 151 152 152 151 151 152 149 148 149 146 143 143 141 140 140 131 125 122 120 119 116 115 116 115 114 116 124
168 183 206 203 357 2 85 67 98 87 102 170 150 268 244 246 262 288 278 265 268 272 301 347 68 72 61 71 95 91 109 115 118 120 127 143 150 155 160 161 162 161 162 164 165 163 162 162 161 161 161 160 158 158 155 151 150 153 154 156 157 158 160 163 164 161 158 159 157 156 157 157 158 156 155 156 154 153 154 150 147 146 143 142 139 134 130 128 126 123 118 116 117 116 116 119 126
170 185 231 238 287 317 80 69 58 66 206 179 153 246 227 236 260 281 283 273 275 301 1 22 74 92 75 41 81 129 159 139 129 134 131 138 147 154 159 160 161 162 164 166 167 164 162 162 162 163 163 161 161 160 158 154 155 157 158 158 158 160 163 164 167 167 162 162 160 160 162 162 163 163 161 160 160 160 158 154 152 150 147 146 142 140 139 136 132 128 122 119 119 119 118 119 124
166 181 245 230 283 25 77 90 94 77 293 191 161 221 222 236 249 271 301 284 321 350 11 7 45 96 55 352 58 66 151 142 135 140 137 140 147 155 159 158 160 162 165 167 167 165 162 163 163 165 165 163 163 163 162 160 161 162 162 161 161 163 164 163 166 166 161 161 162 165 168 166 168 169 166 164 166 166 163 161 160 155 151 151 149 148 147 143 137 132 127 123 122 122 121 121 124
151 24 17 107 344 43 80 97 108 157 327 353 166 228 221 245 250 226 359 2 21 353 357 347 12 88 32 39 40 25 115 132 135 137 138 142 151 158 159 157 159 161 165 167 168 166 162 164 166 167 167 167 166 166 166 165 166 167 166 165 165 168 167 164 164 162 158 160 165 168 169 168 172 173 169 169 170 169 169 170 164 155 152 155 156 156 152 146 139 136 132 127 126 125 124 123 123
147 112 340 79 59 47 66 85 59 220 325 339 320 313 296 298 306 110 75 40 92 9 355 329 352 92 79 64 68 35 102 123 129 134 137 145 154 158 158 158 160 161 165 168 168 166 163 166 168 169 170 170 170 170 171 171 171 172 171 171 170 172 172 166 163 163 158 161 167 170 170 170 175 176 174 173 171 171 172 173 167 156 150 152 156 158 155 146 140 138 136 130 127 126 125 124 122
91 134 302 326 80 41 19 62 0 301 290 287 274 285 312 332 339 10 87 57 357 36 359 352 51 92 100 77 72 11 108 125 127 132 137 144 151 154 158 161 163 163 166 169 168 166 165 168 170 171 172 172 173 174 176 177 177 177 176 176 175 176 176 170 164 165 162 164 169 171 173 173 176 178 177 174 171 170 172 178 178 164 152 146 148 153 152 145 139 137 135 130 127 125 123 120 118
35 255 182 17 59 47 36 67 333 305 281 285 292 260 278 317 9 11 57 64 359 46 8 15 66 88 88 84 75 15 120 130 129 135 140 144 147 151 156 160 164 166 168 169 168 167 167 170 172 172 173 174 176 177 179 181 180 180 180 180 179 179 179 175 169 168 166 167 171 173 177 178 177 181 181 176 172 171 176 186 185 175 164 150 143 147 146 141 137 132 130 127 123 120 118 114 111
45 273 114 89 104 133 178 109 0 311 311 336 319 265 237 12 44 87 84 79 32 34 2 28 99 117 76 81 78 22 127 134 134 139 144 146 148 151 153 157 165 170 172 171 169 169 168 171 172 173 175 176 178 179 181 182 182 182 183 184 183 182 181 180 176 174 172 173 176 177 181 183 181 183 183 177 175 175 181 188 186 183 176 161 151 149 145 142 136 129 127 121 116 113 110 105 103
156 216 121 71 138 133 155 108 5 333 337 308 191 285 12 44 344 171 133 95 95 53 14 69 90 84 80 90 40 5 140 142 139 141 144 144 148 153 152 157 167 173 175 173 171 170 171 172 173 174 177 178 179 180 183 184 185 185 185 186 186 185 184 184 183 180 179 179 179 180 183 188 189 185 182 180 180 182 187 191 189 186 179 171 167 161 155 149 140 136 138 128 114 112 108 102 97
184 182 131 91 152 124 106 92 340 62 353 282 202 109 25 285 232 190 134 97 65 124 130 132 101 84 94 121 95 358 142 148 143 142 145 142 146 152 153 159 168 174 176 175 173 172 173 174 175 176 177 180 181 182 185 186 187 188 188 189 188 188 188 189 188 184 183 183 183 186 187 190 194 189 184 184 184 188 194 197 194 190 182 177 177 173 167 162 157 158 164 156 127 118 115 107 95
191 169 131 118 117 108 52 123 182 109 176 256 219 145 164 245 213 196 177 126 70 155 124 144 133 106 152 147 168 199 143 148 145 142 144 143 145 148 152 157 166 174 175 175 175 175 175 176 177 178 180 182 182 183 185 186 188 189 189 190 191 191 191 193 193 188 186 188 189 192 194 194 195 195 190 185 188 195 197 199 199 194 189 184 183 178 173 174 173 177 183 184 173 159 132 114 98
184 128 106 83 94 109 117 138 109 80 243 226 202 153 160 244 192 187 222 146 126 168 122 172 164 123 143 144 165 155 141 146 144 142 143 145 146 147 152 154 160 169 174 176 177 179 179 179 181 181 184 185 184 184 185 186 188 189 189 190 192 192 193 196 197 193 192 193 194 195 198 198 197 200 197 189 191 199 200 201 203 200 197 190 186 184 182 185 183 188 194 200 212 203 182 139 105
158 100 85 83 104 129 161 170 154 143 241 226 201 191 156 215 199 190 202 125 132 164 130 155 123 122 140 146 156 146 139 142 141 142 142 146 149 148 153 155 156 163 171 177 180 182 182 184 185 185 188 188 188 186 185 187 187 189 189 189 191 194 195 197 198 197 196 195 196 197 198 200 200 202 201 197 194 198 204 209 209 205 202 196 194 197 195 198 198 203 209 209 219 222 229 228 257
147 146 114 112 135 155 168 177 172 139 189 211 199 200 170 161 191 167 106 102 115 117 87 71 77 97 121 138 148 141 141 144 140 144 145 147 150 149 154 158 160 163 170 178 183 185 186 188 189 190 192 191 192 190 188 188 187 188 190 190 192 195 197 198 199 200 201 197 197 198 200 202 204 205 202 201 197 197 203 210 216 213 206 202 202 206 205 207 209 213 222 221 226 236 250 260 269
161 165 108 157 183 175 166 155 155 146 168 192 196 198 192 167 171 140 114 130 116 107 75 63 83 98 118 133 142 139 140 140 136 145 149 149 156 157 157 160 164 168 173 179 185 188 189 192 194 195 196 195 195 194 192 191 189 189 192 194 196 197 199 201 202 204 205 202 199 200 202 204 206 207 205 205 201 201 205 208 218 221 217 215 214 217 217 218 222 228 232 232 239 250 267 275 271
175 126 100 210 194 158 157 151 163 169 151 163 185 180 209 206 161 136 137 136 123 137 147 117 119 143 136 133 143 136 121 117 129 155 164 158 162 164 163 166 169 174 179 183 186 190 193 195 198 199 199 198 198 198 197 195 193 194 196 199 201 201 203 205 207 208 208 207 204 204 204 206 208 210 208 210 209 207 210 212 218 225 227 226 225 228 229 230 232 236 240 242 250 268 281 283 276
166 131 143 197 173 141 165 164 169 172 148 154 167 152 193 220 160 138 135 128 143 183 182 158 155 163 151 139 143 125 109 126 151 177 188 168 167 172 173 174 175 178 180 184 187 190 195 198 200 201 201 200 200 200 199 199 199 199 201 204 206 206 208 210 210 210 211 211 210 209 208 208 211 214 211 212 215 214 215 218 222 227 232 233 230 235 241 244 242 242 247 251 262 280 288 287 278
99 151 157 166 157 149 171 161 152 161 144 138 151 155 181 191 145 153 146 147 193 196 178 162 161 164 154 138 135 122 125 153 167 182 189 168 171 172 172 176 182 183 181 185 189 191 195 198 201 201 201 202 202 203 203 204 204 204 206 209 211 211 212 214 213 213 214 214 215 213 211 212 214 216 216 215 218 221 221 222 227 230 234 236 235 240 248 253 252 250 253 259 273 284 287 290 282
117 238 168 161 158 151 162 149 142 152 138 143 166 171 163 137 135 177 160 180 199 177 155 155 159 153 129 111 127 133 146 163 170 187 177 155 168 163 166 182 189 190 187 188 190 192 196 197 200 201 200 202 203 206 207 208 209 211 213 213 215 215 215 217 216 216 217 217 218 216 215 217 217 218 218 218 220 223 225 225 227 231 233 236 239 243 251 257 258 257 261 268 276 279 282 290 290
135 167 186 173 160 148 147 143 144 144 142 157 160 150 151 142 141 164 168 185 180 155 142 145 147 143 126 110 128 141 152 160 168 185 178 167 180 173 172 185 191 195 194 193 191 192 197 198 200 201 201 204 205 208 209 211 213 215 217 218 219 218 218 219 220 220 220 219 220 219 219 220 220 220 220 221 222 225 228 229 228 230 233 236 240 242 248 253 256 259 263 270 272 273 277 285 291
142 163 181 174 156 144 137 136 142 132 129 137 130 144 171 159 137 141 169 175 161 140 133 138 139 142 139 135 144 145 153 163 165 177 181 182 190 185 184 187 189 193 194 195 193 193 198 199 200 203 204 207 207 208 210 213 216 218 220 221 222 222 221 222 223 224 223 222 222 222 222 222 221 222 223 223 223 225 228 230 230 230 232 233 235 237 239 241 247 252 257 263 267 267 269 276 286
169 165 170 151 140 139 131 134 146 138 129 124 123 142 175 167 130 129 183 168 149 141 137 143 141 148 155 152 159 154 155 166 168 175 181 185 185 187 193 194 194 193 191 194 194 195 197 197 200 202 204 208 208 209 211 214 216 219 221 223 225 224 224 225 225 226 226 225 225 224 224 224 223 224 225 226 225 227 227 229 230 231 233 232 232 234 235 237 239 243 247 254 261 261 262 270 279
153 154 157 142 142 146 135 143 163 151 140 137 131 141 172 172 122 138 214 168 146 146 145 154 151 156 163 164 175 163 159 170 173 173 177 180 182 188 193 195 200 199 193 193 196 197 196 196 200 199 203 210 209 210 212 215 217 219 220 221 223 224 224 225 225 227 227 227 227 226 226 225 226 227 227 228 229 229 229 230 231 231 232 232 231 232 234 236 238 238 241 248 255 258 260 267 273
77 125 124 130 133 123 129 147 173 154 139 156 130 122 166 177 119 169 193 170 154 152 152 163 162 163 168 171 180 167 164 171 167 167 173 180 187 193 191 191 198 203 199 199 201 200 198 198 195 194 206 212 210 212 214 216 218 219 220 220 221 221 221 221 223 225 226 228 228 226 227 226 227 228 229 231 231 232 232 233 233 231 231 231 230 231 231 232 235 236 241 248 252 255 259 263 266
56 112 108 97 96 108 166 160 180 157 153 169 118 84 107 255 217 182 171 167 160 153 157 168 168 171 176 177 182 170 168 170 168 174 181 183 188 193 195 197 198 198 201 205 204 202 200 197 191 198 209 212 212 215 217 219 221 222 223 223 223 222 220 221 221 222 225 227 227 227 227 228 228 230 232 233 234 235 235 235 234 233 232 232 234 235 234 234 237 240 244 247 247 250 258 262 263
40 114 116 111 80 150 224 215 184 147 164 172 117 90 235 256 244 200 167 164 156 155 164 171 176 178 178 181 186 178 169 172 180 187 186 185 189 191 195 200 200 196 198 205 205 203 201 192 194 207 210 211 214 216 219 221 223 224 226 226 224 222 222 223 223 222 224 225 226 228 229 231 232 233 234 235 236 237 237 237 236 236 237 236 237 238 238 238 240 242 244 242 243 251 260 265 266
221 106 98 125 123 208 241 238 171 140 185 168 104 109 226 251 243 212 178 168 157 161 173 174 180 180 178 181 178 172 168 175 186 191 188 186 187 188 192 196 199 197 195 202 203 202 202 194 196 209 211 212 214 215 219 221 222 225 227 227 224 223 223 224 226 226 226 227 228 231 233 236 237 238 238 238 239 239 239 239 239 240 240 238 237 237 237 238 239 240 240 240 244 253 260 266 268
195 114 104 195 142 196 248 242 182 158 170 152 104 133 234 242 223 212 185 172 159 161 173 173 178 179 173 175 170 157 155 173 183 189 189 187 187 187 190 194 195 194 194 200 198 197 201 197 197 208 213 214 214 215 219 219 221 224 227 229 228 227 227 226 229 229 230 232 232 234 237 239 241 242 243 242 241 241 240 240 241 241 239 238 236 234 234 236 237 238 238 239 243 250 257 264 268
347 113 168 189 120 158 244 247 213 184 123 148 136 147 220 236 213 216 192 173 159 158 170 172 176 180 173 168 164 154 149 169 179 183 183 184 187 188 190 193 192 190 191 191 188 189 194 193 195 205 211 212 215 216 215 217 221 224 226 229 231 231 231 232 234 233 233 235 236 237 239 240 243 246 247 246 244 243 243 244 244 242 240 240 237 234 235 237 237 237 238 240 242 247 253 260 264
333 49 114 111 128 155 221 263 242 222 135 167 158 152 227 214 188 203 199 177 155 156 169 177 180 176 176 167 161 168 165 174 192 188 180 176 182 186 187 188 187 188 188 182 186 191 189 185 189 201 207 205 212 215 211 216 221 222 225 228 230 232 234 238 239 237 236 237 238 240 242 243 246 249 250 249 247 246 246 246 245 243 244 243 239 237 237 236 234 236 240 241 242 243 246 252 257
357 40 100 99 172 172 203 232 204 189 165 154 153 189 266 196 176 189 201 184 157 159 169 177 181 166 171 169 169 183 177 191 210 198 187 180 176 177 182 187 189 192 189 180 181 178 154 160 181 197 200 199 209 214 211 216 220 221 224 226 230 234 237 240 239 237 237 238 239 241 244 245 247 250 252 251 249 249 247 244 243 243 244 242 239 235 233 232 232 235 239 241 241 239 238 244 251
55 17 111 134 188 207 212 227 198 168 155 135 155 179 183 163 181 179 197 197 154 157 166 159 155 145 156 163 177 197 196 212 221 210 200 192 186 182 184 187 186 182 141 103 86 85 114 169 190 193 195 199 207 209 208 212 216 219 221 223 229 234 236 237 237 237 237 237 239 241 243 243 246 249 252 251 250 249 247 244 242 242 243 241 236 232 230 230 232 233 235 236 237 235 233 237 246
65 8 21 125 172 215 228 241 228 159 137 19 147 132 144 167 179 151 78 162 144 149 157 148 146 146 152 165 192 212 214 234 235 219 206 204 205 186 132 116 129 101 83 127 180 177 186 195 199 194 192 200 205 205 208 210 211 213 215 218 225 229 232 235 236 237 237 238 239 240 241 242 244 246 247 248 248 249 249 246 244 245 245 240 237 235 234 235 235 234 233 234 234 233 231 231 240
18 25 1 35 171 213 236 235 228 128 90 7 113 104 87 147 88 22 22 130 153 171 157 147 153 154 162 176 201 218 238 311 9 91 175 238 209 95 95 123 168 185 176 188 203 203 203 203 206 204 194 198 206 208 209 211 213 213 213 217 222 226 231 234 236 237 238 240 241 241 242 242 243 243 242 244 245 247 249 249 249 250 248 242 240 241 241 241 239 235 232 232 232 231 228 223 228
356 1 4 329 262 239 283 309 40 72 82 43 104 94 44 20 50 12 1 68 92 227 140 147 160 155 182 200 209 215 205 8 40 51 42 76 94 111 143 168 180 195 194 195 204 205 208 210 211 208 199 199 205 207 209 211 213 214 217 221 224 228 234 237 237 240 242 241 240 239 239 240 242 243 242 242 244 245 247 249 252 254 250 242 239 241 243 244 241 237 231 228 225 226 228 222 220
10 339 335 304 254 152 269 305 44 46 91 134 109 88 52 14 23 19 360 356 35 56 95 110 137 152 204 219 200 179 130 83 69 60 64 93 109 131 157 170 175 194 202 201 208 210 212 216 215 209 206 206 206 209 213 209 207 214 223 229 232 233 239 245 242 240 241 240 240 239 235 235 239 242 243 243 244 245 247 250 252 254 251 244 239 240 243 245 241 235 229 226 221 218 224 223 219
342 301 281 285 285 207 218 145 87 63 68 126 106 72 2 353 7 13 344 341 46 52 84 87 69 110 196 252 76 91 94 85 83 85 89 104 121 139 151 168 187 204 210 208 213 217 219 223 221 219 221 219 218 220 216 206 208 218 221 222 227 230 236 242 239 236 236 236 239 242 240 237 237 241 244 245 246 247 249 251 251 250 250 246 243 242 244 246 241 232 227 225 222 217 217 217 217
327 283 240 235 259 268 147 117 105 88 98 192 115 80 313 314 335 303 325 354 33 19 77 103 90 88 99 89 68 50 65 76 86 94 104 117 128 140 150 171 194 212 221 217 218 226 229 230 225 229 238 233 232 234 225 212 212 215 211 210 213 216 222 228 232 236 237 238 241 245 247 244 240 241 245 247 248 248 250 251 251 252 251 247 244 243 243 245 239 231 229 227 222 221 220 216 215
325 264 227 211 184 43 116 125 117 129 174 239 103 111 206 300 297 270 328 347 18 25 52 122 133 108 124 148 103 62 72 74 74 77 75 89 113 139 161 183 201 220 226 215 221 238 240 243 240 239 255 254 243 240 234 223 215 212 212 213 214 214 219 226 234 241 245 247 248 248 249 248 245 245 247 248 249 250 253 255 255 255 254 250 248 245 243 243 239 233 233 230 225 224 223 221 220
276 246 213 230 101 48 229 127 129 178 147 9 17 112 127 268 264 295 351 325 53 83 130 259 173 134 150 147 121 105 91 82 79 75 63 52 49 78 194 229 237 242 232 201 206 236 245 257 263 257 267 271 259 246 240 235 227 223 223 223 222 223 229 235 240 245 249 252 252 251 249 248 248 248 248 249 250 253 257 258 257 256 254 252 250 247 243 242 238 234 232 231 230 229 226 226 227
244 237 225 287 271 216 224 72 285 227 98 49 68 109 99 268 268 322 13 233 188 157 211 227 184 169 155 124 112 93 80 81 85 86 93 108 139 176 217 274 286 290 285 261 302 277 272 283 301 315 293 279 274 262 252 245 238 234 233 232 232 233 238 244 249 251 249 247 248 250 249 247 247 248 248 248 249 252 256 256 256 259 259 252 247 246 243 238 234 231 231 231 231 233 230 228 230
257 272 318 330 334 347 36 121 248 357 84 145 187 140 118 238 276 294 64 219 236 225 229 236 229 196 122 98 84 69 63 69 75 82 109 122 144 161 186 288 309 328 352 28 36 21 330 327 342 348 336 301 283 275 266 253 244 242 242 240 239 240 243 248 252 255 249 245 246 248 248 249 251 252 251 248 246 247 250 251 253 259 261 254 245 239 236 233 231 231 234 231 229 233 235 232 233
306 360 4 357 351 359 16 52 134 64 51 184 190 159 119 170 264 245 201 217 203 194 209 286 348 24 56 68 65 61 56 58 53 36 35 38 42 64 62 9 352 10 33 41 44 40 23 5 355 348 342 323 290 278 274 261 249 247 248 247 245 246 249 252 253 254 252 249 250 250 250 253 255 257 257 253 246 242 243 246 251 258 260 258 250 238 231 232 235 235 235 233 231 234 240 240 239
9 13 26 0 332 358 11 354 45 69 347 255 171 105 84 107 241 234 232 228 162 155 162 135 104 73 71 68 63 65 66 69 57 27 12 360 2 25 37 25 12 17 25 26 32 39 38 31 17 3 352 339 315 289 276 271 263 256 253 254 259 262 261 261 261 258 256 255 256 260 260 258 256 255 253 251 244 239 239 244 251 257 255 255 253 243 235 234 239 239 234 234 235 236 242 243 241
28 1 22 15 326 353 358 340 35 74 80 308 110 81 73 40 267 222 211 182 110 114 133 134 120 102 91 85 81 80 70 67 53 21 354 346 355 8 18 19 12 13 17 16 21 37 47 44 36 27 15 0 345 325 297 281 276 270 267 267 267 266 263 265 266 262 260 261 263 264 265 264 260 254 247 244 241 237 237 239 246 251 248 249 251 247 239 232 234 237 233 235 240 241 244 244 243
58 51 70 96 96 24 321 308 51 90 143 170 64 72 79 328 321 20 108 99 103 105 109 125 121 112 113 106 96 89 68 59 46 16 345 325 335 3 14 15 8 7 15 20 20 30 45 51 52 47 38 23 4 345 323 304 294 285 280 277 273 265 254 258 262 261 262 264 264 263 263 265 264 258 251 249 246 240 237 235 238 243 243 245 248 246 245 238 233 237 237 240 245 246 246 246 247
139 170 150 134 148 139 237 249 129 139 178 257 6 62 123 193 14 53 96 96 92 96 100 104 102 103 110 99 92 95 79 63 50 33 5 325 331 4 18 12 5 5 17 31 33 34 39 46 51 47 44 40 20 355 331 311 300 290 281 275 275 273 260 254 255 258 263 266 264 262 262 264 265 264 259 256 254 246 242 237 235 239 239 241 243 240 243 241 237 238 240 244 248 249 249 250 249
227 175 100 38 211 141 127 110 126 134 130 349 1 64 138 128 64 40 81 87 76 80 83 80 75 66 70 69 64 76 71 59 50 42 30 6 13 29 22 6 6 7 14 28 38 41 37 36 41 42 42 45 34 2 325 304 300 292 284 277 273 272 266 256 252 255 260 262 262 262 264 269 272 271 265 259 255 247 245 241 236 237 236 235 236 234 236 239 238 238 240 245 248 249 252 252 249
275 35 58 254 189 124 107 52 40 65 94 44 26 100 101 84 68 19 62 80 73 76 76 71 69 63 61 54 42 47 52 51 47 43 36 25 27 29 21 18 20 22 25 28 35 41 43 45 51 52 47 44 38 7 312 299 308 301 293 289 282 274 265 260 258 258 261 262 263 265 270 274 274 272 266 258 252 246 246 247 243 240 234 232 235 233 234 237 238 239 240 243 246 248 253 252 249
63 0 265 262 55 89 107 104 27 35 88 5 19 116 143 125 122 347 60 81 76 76 81 77 71 71 69 59 49 50 54 54 48 45 42 33 23 12 10 25 36 42 41 37 40 45 50 56 64 67 56 38 20 0 327 313 314 308 300 295 290 283 273 268 266 265 266 266 266 268 271 274 273 267 260 258 259 252 247 249 249 246 237 233 234 232 232 232 232 235 238 242 246 249 252 249 244
76 262 245 75 59 9 28 98 101 67 103 286 352 49 172 170 184 287 85 99 100 91 89 85 75 72 76 69 62 56 55 58 49 40 35 33 27 12 6 17 30 40 42 42 46 49 52 57 62 65 59 41 20 357 335 324 317 306 298 293 287 280 273 270 267 268 268 264 265 269 272 271 272 266 255 253 257 255 250 245 241 242 239 235 233 231 231 233 232 232 234 239 243 244 250 248 239
33 22 10 50 120 158 85 123 135 123 136 168 23 354 274 221 209 159 138 138 125 109 96 94 89 83 84 80 75 68 63 62 54 44 26 23 27 23 20 20 24 35 43 46 50 52 52 48 50 55 56 49 36 7 339 324 313 303 297 294 285 271 264 264 263 265 266 266 266 268 270 270 270 269 259 250 251 251 250 246 237 233 232 231 232 233 233 233 232 232 233 237 241 240 245 246 238
30 20 7 358 346 22 70 42 94 117 134 148 138 249 261 252 225 153 148 144 128 118 109 108 105 96 88 82 82 76 67 59 48 43 29 22 30 35 37 36 34 37 43 46 48 51 52 47 43 44 44 45 38 19 359 327 305 294 285 287 291 284 277 273 268 264 262 265 268 267 270 272 271 273 269 259 255 253 250 249 245 237 230 228 230 233 236 234 229 229 233 238 241 238 239 241 241
112 72 17 333 333 73 78 354 308 102 122 152 154 192 259 258 208 155 148 139 132 125 116 113 115 110 103 92 85 74 68 65 54 47 29 15 29 42 44 42 42 40 39 42 43 43 45 46 41 35 30 26 22 20 8 341 315 293 280 290 314 321 314 297 284 279 272 268 269 269 269 272 273 276 275 271 269 264 257 255 253 246 235 231 232 233 235 233 228 228 232 236 239 236 235 238 241
Height
787 789 789 790 789 791 792 793 811 814 816 836 836 834 830 821 821 820 820 815 812 804 797 798 794 791 795 802 806 806 807 809 810 817 820 807 800 807 809 810 812 815 818 820 821 823 824 826 827 829 831 832 833 834 835 836 837 838 839 839 840 840 841 841 842 842 843 843 843 844 844 845 845 846 846 846 846 847 847 847 847 847 847 847 847 847 847 847 847 847 847 846 845 845 845 845 845
787 789 788 790 789 794 797 793 819 827 827 843 837 833 827 820 823 822 820 816 812 802 794 795 792 791 792 794 797 801 806 804 800 803 804 801 804 808 809 811 812 814 818 820 822 823 825 826 828 829 831 832 833 834 835 837 838 839 840 840 841 841 842 842 843 843 844 844 844 845 845 846 846 847 847 847 847 848 848 848 848 848 848 848 848 848 847 847 847 847 847 846 846 845 845 846 846
788 789 788 791 790 793 797 798 822 834 838 848 840 828 823 826 828 821 816 811 806 798 796 795 793 793 794 800 800 805 811 803 798 798 802 804 805 808 810 811 813 815 817 820 822 823 825 827 828 829 831 832 833 835 836 837 838 839 841 841 842 842 843 843 843 844 844 845 845 846 846 847 847 847 847 848 848 849 849 849 849 849 849 849 849 848 848 848 848 848 847 847 846 846 846 846 846
788 789 789 790 794 797 802 812 824 833 843 847 840 827 821 828 825 817 811 805 801 798 799 795 797 793 795 807 803 806 811 805 801 799 803 805 805 807 810 812 814 816 818 820 822 823 825 827 828 830 831 832 834 835 836 838 839 840 841 842 843 843 844 844 844 845 845 846 846 846 847 847 848 847 848 848 849 849 850 850 850 849 849 850 849 849 849 848 848 848 848 847 847 846 846 846 847
789 791 791 792 801 803 806 819 824 832 841 839 837 828 820 822 819 815 808 803 800 799 799 796 802 795 793 802 800 808 810 805 803 800 802 805 805 808 810 812 814 816 819 820 822 824 825 827 829 830 832 833 834 836 837 838 839 841 842 843 843 844 844 845 845 845 846 846 846 847 847 848 848 848 848 848 849 849 850 850 850 850 850 850 850 850 850 849 849 849 848 848 847 847 847 846 847
790 792 792 793 799 799 809 825 830 834 831 826 830 825 818 817 815 814 808 804 799 798 797 797 802 799 800 799 796 803 803 802 803 801 802 804 807 808 810 813 814 817 819 821 822 824 826 828 829 830 832 833 835 836 837 839 840 841 843 843 844 844 845 845 845 845 846 846 847 848 848 848 848 848 848 849 849 849 849 850 850 850 850 850 850 850 850 850 850 849 849 849 848 847 847 847 847
791 795 795 799 800 800 819 833 832 833 823 818 823 820 816 814 812 811 810 807 803 799 797 798 797 801 810 801 799 799 794 798 799 801 803 804 807 808 811 813 815 817 819 821 823 824 826 828 829 831 832 834 835 837 838 839 841 842 843 844 844 845 845 846 845 846 846 847 848 848 848 848 848 848 849 849 849 849 849 849 850 850 850 850 850 850 850 850 850 850 850 850 849 849 848 848 848
792 797 797 807 812 811 825 831 829 829 821 815 816 815 813 811 809 810 811 810 809 805 801 800 795 807 813 802 808 801 793 798 797 802 804 805 808 809 812 813 816 817 820 821 823 825 826 828 830 831 833 835 836 837 839 839 841 842 843 844 845 845 845 846 846 846 847 847 848 848 848 848 849 849 849 849 849 849 849 849 849 850 850 850 850 850 851 851 851 851 851 851 850 850 849 849 849
791 797 801 810 817 821 828 830 827 825 820 817 815 813 810 809 808 809 811 810 809 807 805 801 796 810 814 806 812 803 796 800 799 803 804 807 808 810 813 813 816 817 820 821 823 825 826 829 830 832 833 835 836 838 839 840 841 842 844 844 845 846 846 846 846 847 847 848 849 849 849 849 849 849 849 850 850 850 851 852 851 850 850 851 851 851 851 851 851 851 851 851 851 851 851 850 850
793 798 805 813 818 828 833 830 827 823 820 818 815 812 810 809 808 808 810 811 808 807 806 799 798 808 812 813 814 805 802 802 801 806 806 808 809 811 814 814 817 817 820 821 823 825 827 829 830 832 833 835 837 838 840 840 842 842 844 845 845 846 846 847 847 847 848 849 849 849 850 850 850 850 850 851 851 852 852 853 853 852 852 852 851 852 852 852 852 852 852 851 851 851 851 851 851
802 801 804 817 823 832 834 831 828 823 819 816 814 810 808 808 808 810 809 810 807 808 805 801 806 809 810 816 814 807 805 804 803 806 807 809 811 812 814 816 818 818 820 821 824 825 827 829 831 833 834 836 837 838 840 841 842 843 844 845 846 846 846 847 847 848 848 849 849 850 850 850 851 851 851 852 852 852 852 852 853 853 853 853 852 852 852 852 852 852 852 852 852 852 852 852 852
808 808 807 821 825 829 830 829 828 823 819 817 815 809 806 807 809 811 810 811 808 808 806 804 807 805 813 819 813 808 806 807 806 807 809 810 812 813 814 816 818 819 820 822 824 826 827 829 831 833 834 836 837 838 840 841 842 843 844 845 846 846 847 847 848 849 849 850 850 850 850 850 851 851 852 852 852 852 852 852 853 853 853 853 853 852 852 852 852 852 852 852 852 852 852 852 852
807 809 811 822 822 826 827 826 828 825 822 817 814 808 805 807 809 809 809 810 809 811 807 801 800 802 816 819 811 808 807 808 807 808 810 811 813 814 816 817 819 821 821 823 824 826 828 829 831 832 834 836 837 838 839 841 842 843 844 845 846 846 847 848 848 849 849 850 850 850 850 851 851 851 852 852 852 852 852 852 852 853 853 853 853 853 853 852 852 852 853 852 852 852 852 852 852
800 802 808 822 821 824 825 826 828 828 825 814 810 808 806 807 806 804 806 811 810 808 802 795 796 806 816 817 815 811 808 809 809 809 810 812 814 815 818 819 820 821 823 824 825 826 828 829 831 832 834 836 837 838 839 841 842 843 844 844 845 846 847 848 848 849 849 850 850 850 850 851 851 851 852 852 852 852 852 852 852 852 852 852 852 852 853 852 852 852 853 853 853 853 852 852 852
793 795 803 818 822 823 824 824 824 826 824 812 807 806 807 805 800 803 804 809 809 798 796 795 794 807 815 816 818 811 807 809 809 811 811 813 815 817 819 819 821 822 823 825 826 827 828 830 831 833 834 835 837 838 839 840 842 842 843 844 845 846 847 847 848 848 849 849 850 850 850 851 851 851 851 851 851 852 852 852 852 852 852 852 852 852 853 853 853 852 853 853 853 853 853 853 853
784 792 804 816 821 824 823 821 824 825 819 810 807 804 808 803 796 802 798 798 804 795 796 800 795 802 807 809 810 805 806 809 809 811 812 815 816 818 820 820 822 823 824 825 826 828 828 830 831 833 834 835 837 837 839 840 841 842 843 844 845 846 846 847 847 847 848 848 849 850 850 850 851 851 851 851 851 852 852 852 852 852 852 852 852 853 853 853 853 853 853 853 853 853 853 853 852
780 794 809 816 819 822 819 819 821 819 812 808 806 803 807 806 797 796 790 790 801 800 798 799 794 795 799 801 802 802 806 808 809 811 812 815 816 818 820 821 822 823 825 826 827 828 829 830 831 833 834 835 837 837 839 839 840 842 843 844 844 845 845 846 846 846 847 847 848 849 850 850 850 850 851 851 851 851 852 852 852 852 852 852 852 852 852 852 852 853 852 853 853 853 853 853 852
785 801 811 815 816 812 806 807 808 807 807 805 803 802 805 806 801 794 793 798 800 802 801 797 796 794 796 798 800 802 805 808 809 811 812 814 816 817 819 820 822 823 825 826 827 828 829 830 831 833 834 835 836 837 838 839 840 841 842 843 843 844 844 845 845 845 846 846 848 848 849 849 849 850 850 850 850 851 851 852 852 852 851 851 852 852 852 852 852 852 852 852 852 852 852 852 852
786 799 808 811 807 799 792 793 797 799 801 801 800 802 804 802 799 795 801 808 804 807 807 802 803 800 798 799 801 804 805 809 812 812 812 813 815 816 818 820 821 822 823 825 826 827 828 829 830 832 833 834 835 837 837 838 839 840 841 842 842 842 843 843 844 844 845 846 847 847 848 848 848 849 849 850 850 850 851 851 851 851 851 851 851 851 851 851 851 851 851 852 852 851 852 852 852
780 789 806 805 793 792 788 788 792 792 793 799 801 801 804 799 794 795 803 810 807 810 810 806 809 805 802 801 801 804 807 810 812 814 814 812 814 815 816 817 818 820 821 823 824 826 827 828 829 831 832 833 835 836 837 838 838 839 840 840 841 841 841 842 842 843 844 845 845 846 846 847 847 848 848 849 849 849 850 850 850 850 850 850 850 850 850 850 850 850 850 851 851 850 851 851 851
777 782 797 794 785 791 789 786 788 788 790 796 800 802 804 795 791 796 802 811 813 808 804 802 805 802 800 800 800 803 806 806 807 811 813 812 813 814 815 817 818 819 820 822 823 824 825 827 828 829 831 832 833 835 835 836 837 838 838 839 839 839 840 840 841 842 842 843 843 844 845 845 846 846 847 847 848 848 848 849 849 849 849 849 849 849 849 850 850 850 850 850 850 850 850 850 850
778 781 782 782 783 790 787 783 786 787 789 795 800 802 800 793 793 796 799 809 810 800 796 795 796 796 796 797 799 802 803 803 804 807 809 810 811 812 814 817 819 820 820 821 821 822 823 825 826 828 830 831 832 833 833 835 835 836 836 836 837 837 838 838 839 839 840 841 841 842 843 843 844 844 845 846 846 846 846 847 847 847 847 847 848 848 848 848 849 849 849 849 849 849 849 849 849
780 788 778 777 779 784 783 782 785 786 791 797 798 794 792 795 799 795 796 800 795 788 789 790 791 792 793 795 798 801 802 802 804 806 807 808 810 811 812 813 815 817 818 819 820 821 822 823 825 826 828 829 830 831 832 832 833 833 834 834 835 835 836 836 836 836 837 838 838 840 840 841 842 842 843 844 844 844 844 845 845 845 845 845 846 846 846 847 847 847 847 847 848 848 848 848 848
777 789 781 777 776 778 779 779 783 783 789 792 789 790 791 797 799 795 795 793 787 784 785 787 789 790 792 795 797 800 801 801 803 806 806 806 809 810 810 811 812 814 816 817 818 819 820 821 822 824 825 827 827 828 829 829 830 831 831 832 832 832 833 833 833 834 834 835 836 837 838 839 839 840 841 841 841 842 842 842 843 843 843 843 844 844 844 845 845 846 846 846 846 847 847 847 847
777 784 781 777 777 776 776 778 781 781 785 786 787 793 794 792 792 795 796 790 785 784 785 787 788 791 792 795 797 798 800 801 803 804 805 806 807 808 809 810 811 813 814 815 816 817 818 819 820 822 823 824 825 825 826 827 828 828 829 829 829 830 830 830 831 831 832 832 833 834 835 836 837 837 838 839 839 839 840 840 840 840 841 841 842 842 842 843 843 844 844 844 845 845 846 846 846
774 777 777 777 780 778 777 780 782 783 784 785 789 796 794 787 788 797 795 786 785 784 787 789 789 793 793 794 795 796 799 801 802 803 804 805 806 806 807 809 810 811 812 813 815 815 816 818 818 819 821 822 822 823 824 824 825 826 826 826 827 828 828 828 829 829 830 830 830 831 832 833 834 834 835 836 837 837 838 838 838 838 838 839 839 840 840 841 841 842 843 843 843 844 844 845 845
764 771 774 776 781 779 779 782 784 785 785 784 790 797 794 785 790 803 795 784 785 786 791 790 791 794 794 794 794 794 798 799 801 801 803 805 805 806 805 807 808 809 811 812 813 813 815 816 817 819 820 820 820 821 821 821 822 822 822 823 823 824 824 825 826 826 827 827 828 829 829 830 831 832 832 833 834 835 836 836 836 836 836 836 837 837 838 839 839 840 841 841 842 842 843 844 844
762 770 779 782 782 782 781 783 786 786 788 785 787 796 796 790 793 799 790 783 784 788 793 792 792 794 793 794 794 794 796 798 800 800 801 803 803 804 804 804 805 807 809 810 811 812 814 815 818 821 819 817 818 819 819 819 819 819 819 819 819 820 821 822 822 823 824 825 826 827 827 828 829 829 830 831 831 833 833 834 834 834 834 834 835 836 836 837 838 839 839 840 840 841 842 842 842
766 771 789 796 789 790 788 785 786 786 790 784 785 803 808 800 796 790 784 783 784 789 794 794 794 795 793 794 794 794 795 798 800 800 799 799 801 802 802 803 804 805 806 807 810 811 812 815 818 818 815 816 818 818 818 818 818 818 818 818 819 819 820 820 820 821 822 823 825 825 826 826 826 826 827 828 829 830 830 831 831 831 832 833 833 834 834 835 836 836 837 838 838 839 840 840 841
770 774 789 802 803 803 792 786 787 786 789 780 786 817 821 806 796 787 783 783 786 792 795 795 795 795 795 794 794 795 795 796 798 798 798 798 799 800 800 802 803 804 805 806 808 809 811 814 815 813 813 815 817 817 817 817 817 817 818 818 819 819 819 820 820 820 821 822 823 823 824 824 824 824 824 825 826 827 827 827 828 829 830 831 831 832 832 833 834 834 835 836 836 837 838 838 839
773 782 791 802 814 812 793 787 790 789 790 780 789 819 819 805 797 788 784 783 788 795 795 795 795 795 795 795 795 795 793 794 794 795 796 797 798 799 799 801 802 804 804 805 806 807 810 811 812 812 814 815 815 816 815 815 816 816 817 817 818 818 818 820 820 820 820 820 821 821 822 822 823 823 823 824 824 824 824 824 825 826 828 829 829 830 830 831 831 832 833 833 834 835 836 836 837
776 793 806 806 811 812 796 786 787 789 791 784 794 816 815 803 797 788 784 784 788 794 795 794 795 795 795 795 794 794 794 793 793 794 795 796 797 798 799 800 801 803 804 805 806 807 809 811 813 814 814 814 814 814 814 815 816 815 816 816 817 818 818 819 819 820 820 820 820 820 821 821 822 822 823 823 823 822 822 822 823 824 825 826 827 828 828 828 829 830 831 831 831 832 833 834 835
783 794 812 810 809 815 804 788 782 783 790 792 798 812 812 803 795 789 786 786 789 793 795 795 796 796 795 796 795 794 795 794 794 794 794 796 797 798 799 800 801 803 804 805 805 807 808 810 813 812 812 813 813 813 813 814 814 815 815 816 816 817 818 819 819 820 819 819 819 819 820 821 821 821 821 822 821 821 821 821 821 823 824 824 825 826 826 826 827 828 828 829 829 830 831 831 832
794 795 807 808 806 812 807 795 784 781 789 795 799 805 805 799 793 791 789 788 791 795 797 796 796 797 797 796 796 795 796 796 794 793 794 795 796 797 798 800 801 802 804 804 804 805 806 810 813 813 812 813 812 811 812 813 813 814 814 814 815 816 817 817 818 819 818 818 818 819 819 820 820 820 820 820 820 820 820 820 821 822 823 823 824 824 824 825 825 826 826 827 828 828 828 829 830
798 797 805 810 806 806 805 796 785 783 790 795 801 806 804 799 795 794 792 790 793 795 796 797 796 797 798 798 797 797 797 797 794 791 793 794 795 797 798 799 801 802 803 804 806 807 809 812 814 814 813 812 810 810 811 811 811 812 812 813 813 814 814 815 816 816 816 817 817 818 818 818 819 819 819 819 819 819 819 819 820 821 821 822 822 823 823 823 823 824 824 825 826 826 826 827 828
790 788 795 808 809 804 798 789 780 781 793 800 801 805 805 803 800 798 796 792 794 796 795 797 798 797 799 800 799 798 798 797 793 792 794 795 796 798 799 802 804 807 809 810 811 811 811 809 806 807 809 808 807 808 810 810 810 810 811 811 811 811 812 812 813 814 814 815 815 816 817 817 817 817 818 818 818 818 818 818 819 819 820 821 821 821 821 821 822 822 822 824 825 825 825 825 827
782 783 789 799 803 800 791 784 779 777 794 806 802 804 807 804 803 801 798 796 796 798 799 799 800 799 800 801 800 799 798 796 793 795 796 797 799 801 804 805 806 808 810 809 806 803 802 800 799 802 804 804 805 805 806 806 806 807 808 809 809 809 810 811 811 812 812 813 814 815 815 815 816 816 816 816 817 817 817 817 818 818 819 819 820 820 820 820 821 821 821 822 823 823 823 823 825
781 787 792 797 797 794 786 783 784 779 795 812 806 808 813 808 806 804 799 800 800 799 800 801 801 800 800 800 800 799 798 795 794 796 797 799 801 803 804 803 801 800 800 800 798 796 796 797 798 800 802 802 802 802 802 802 802 803 804 806 807 809 809 810 810 811 811 812 813 814 813 814 814 814 814 814 815 815 815 815 816 816 817 818 818 818 819 819 820 820 820 821 821 821 821 821 824
783 787 792 799 796 793 788 782 786 784 797 817 812 813 820 813 808 806 803 803 801 799 798 799 800 801 801 800 799 799 799 798 796 797 797 799 801 801 800 798 797 797 796 796 795 794 794 793 794 797 800 801 801 800 799 799 801 803 804 806 807 808 808 809 810 810 810 810 811 812 812 812 812 812 812 812 813 813 814 814 814 815 815 816 816 816 817 818 818 819 819 819 819 820 820 820 822
785 789 794 799 794 797 796 789 791 789 796 814 814 817 823 817 812 809 807 805 802 800 798 798 799 799 801 799 797 799 800 800 800 800 799 799 799 797 796 796 796 796 795 794 793 792 791 791 793 795 798 799 799 799 799 801 805 807 808 808 807 807 807 808 809 809 809 809 810 810 810 810 811 811 811 811 811 811 812 812 812 813 813 814 814 815 815 816 817 818 818 818 818 818 818 818 820
790 788 792 797 791 792 793 791 796 799 804 807 809 825 829 821 823 818 810 807 804 802 801 801 801 799 800 798 797 799 799 800 802 802 800 798 796 795 795 796 795 793 791 790 790 790 791 792 793 795 796 797 798 799 800 804 807 808 807 807 806 806 806 807 807 807 807 807 807 807 808 809 809 810 810 810 810 810 810 810 811 811 811 812 812 813 814 814 816 817 817 817 816 817 817 818 819
795 788 785 787 786 787 788 790 799 815 826 808 801 837 848 827 826 826 817 813 810 808 806 805 805 801 800 800 799 800 800 800 800 800 799 797 796 796 796 794 792 789 787 789 791 791 791 792 793 794 795 796 798 798 800 802 803 805 805 805 804 804 805 805 805 804 804 805 805 806 807 808 808 809 809 809 809 809 809 809 809 809 809 810 811 811 812 813 814 815 816 816 816 816 817 817 817
802 788 777 779 779 782 786 789 800 819 829 808 795 831 854 836 826 825 821 822 817 812 810 809 807 804 801 801 801 801 802 802 801 801 800 799 798 798 797 794 791 787 786 790 792 791 791 791 792 794 795 796 798 798 799 800 801 802 803 802 802 803 803 803 803 804 804 804 805 805 806 806 807 807 807 808 808 808 808 808 808 808 808 808 809 810 810 811 813 814 815 815 815 816 817 817 816
800 778 771 777 775 778 782 784 794 801 807 810 804 815 843 844 830 823 822 826 823 817 815 812 808 806 803 803 803 802 803 803 802 802 800 800 800 799 797 795 791 789 789 790 791 791 791 791 792 794 795 797 798 799 799 799 800 801 801 801 802 802 803 803 803 804 804 803 804 804 804 805 805 805 805 805 806 807 807 807 807 807 807 807 808 808 809 810 811 813 814 814 815 815 816 816 816
785 768 769 774 771 775 778 781 789 788 802 831 822 810 839 851 831 823 825 827 826 821 818 815 811 808 806 805 804 802 803 803 801 801 800 798 798 797 796 794 791 792 794 794 793 793 792 792 792 793 795 797 798 798 799 799 800 800 800 801 801 802 802 802 802 802 802 802 802 802 803 803 803 803 803 803 804 805 805 805 805 805 805 806 806 806 807 809 810 811 812 813 813 814 815 815 815
770 762 768 769 771 775 775 783 789 788 810 843 830 811 838 853 834 827 831 828 826 823 818 815 813 811 809 807 805 803 802 802 802 800 798 797 797 796 796 793 792 794 796 795 794 795 795 793 792 793 795 798 799 799 799 799 800 800 800 800 800 800 801 801 801 801 801 801 801 801 801 801 801 801 801 801 802 802 803 804 804 804 804 805 805 805 806 808 809 810 811 812 812 813 814 814 814
763 766 773 775 779 779 780 786 789 799 821 834 824 812 827 845 839 831 830 822 818 819 818 817 815 813 812 809 807 806 804 804 803 801 799 799 798 797 796 794 791 793 794 794 794 795 796 795 794 794 797 800 801 801 801 800 800 799 799 800 801 802 802 801 800 800 800 800 800 800 800 800 800 800 800 800 801 801 802 802 802 802 803 804 804 804 805 807 808 809 810 810 811 812 813 813 813
766 774 783 792 794 789 793 794 795 819 838 830 820 812 819 840 839 825 820 814 812 816 818 818 818 816 813 811 810 809 807 805 804 803 801 799 797 795 794 793 791 791 792 793 794 794 794 795 795 797 800 803 805 805 804 802 800 799 801 803 806 806 805 802 800 800 799 799 799 799 798 798 798 798 798 798 798 799 800 801 801 801 801 802 802 802 803 805 807 809 809 809 810 811 811 812 812
773 781 792 809 816 815 818 816 819 838 841 826 817 814 826 841 830 815 813 811 812 814 815 817 818 816 814 812 811 810 808 807 805 804 802 800 798 796 795 795 792 791 792 793 794 794 791 791 793 796 800 804 808 811 810 806 803 802 803 804 805 806 805 803 801 800 799 798 797 797 797 797 797 797 796 796 796 797 797 798 799 798 798 800 800 801 801 802 805 808 809 809 809 809 810 810 810
784 788 798 815 826 838 843 834 838 848 838 821 813 817 836 843 825 813 813 813 812 812 813 815 814 814 814 812 810 810 809 808 807 805 803 800 799 799 798 798 796 794 794 794 794 793 791 790 791 793 796 801 808 814 816 811 807 805 804 802 800 801 803 802 801 800 798 797 796 796 796 795 796 796 796 796 796 796 795 795 794 794 795 797 799 799 799 800 803 806 808 808 808 808 809 809 809
784 781 789 805 813 828 839 832 839 848 837 824 818 826 843 844 828 816 813 812 812 813 814 814 813 813 813 811 811 811 811 810 809 807 804 801 800 801 801 801 799 796 795 795 795 794 793 792 792 793 793 796 803 813 816 811 806 804 803 801 799 799 800 800 799 798 797 796 795 795 795 795 795 795 796 796 796 796 794 791 790 790 792 795 796 797 798 799 801 803 805 806 806 807 807 807 808
783 774 786 800 796 803 820 824 826 831 837 835 830 834 838 831 823 815 814 816 815 816 817 816 818 817 815 816 816 814 814 813 811 810 808 804 802 802 802 803 803 799 797 796 797 797 795 793 794 795 795 796 801 806 807 803 801 800 801 801 800 799 798 797 796 795 794 794 794 794 794 794 794 795 795 796 796 795 792 790 790 790 791 792 793 794 796 798 799 801 803 804 804 805 805 805 806
783 781 791 788 777 787 812 828 824 826 845 847 838 842 838 830 829 821 818 823 821 820 821 821 822 821 820 822 820 819 818 816 814 812 810 807 805 804 804 804 805 803 800 799 799 801 799 796 795 796 798 799 799 799 799 799 800 800 800 801 800 799 798 797 795 794 793 793 793 793 793 793 793 794 794 795 795 793 791 790 790 790 790 790 790 791 793 795 796 798 800 801 802 803 803 803 804
784 793 788 775 776 784 799 826 836 841 858 853 842 849 847 843 844 831 824 830 828 825 825 825 825 824 825 825 823 822 821 818 817 814 813 811 808 805 804 804 804 804 803 802 802 803 803 801 797 795 797 798 798 799 799 801 802 801 800 799 799 798 796 795 794 794 793 792 792 792 792 792 792 792 793 793 793 792 791 789 789 788 789 789 790 789 790 791 793 795 796 798 799 800 800 800 801
775 783 774 778 799 804 802 820 837 849 864 860 849 851 848 845 843 835 833 836 832 830 828 828 829 827 827 827 825 824 822 821 820 817 815 813 810 807 804 803 804 804 804 804 804 804 805 806 800 795 795 795 798 800 800 801 801 800 799 798 797 796 794 794 792 792 792 791 791 790 790 790 790 790 791 791 791 791 790 789 788 788 788 789 789 789 789 790 791 792 793 795 796 797 797 797 798
769 774 774 781 796 804 806 812 821 837 859 864 858 854 849 842 835 832 835 832 830 832 831 831 831 828 828 827 826 825 823 823 822 820 818 815 812 810 807 805 805 805 806 805 805 806 807 807 802 796 795 795 798 800 799 799 799 798 797 796 794 793 792 791 790 789 789 788 788 788 787 788 788 789 789 789 790 790 789 789 788 788 787 787 788 788 788 789 789 790 790 792 793 794 795 796 797
786 790 794 794 792 794 802 808 809 820 842 857 860 860 852 837 826 827 829 827 827 828 830 831 830 828 828 827 826 825 823 824 823 822 820 817 815 813 810 809 808 807 807 807 807 808 809 807 801 797 795 794 797 799 798 798 797 796 795 793 793 792 791 791 789 788 787 785 785 785 785 786 786 787 788 788 788 788 788 788 788 788 787 786 786 786 786 787 787 787 788 789 791 791 792 794 795
789 795 798 799 798 800 814 823 813 807 823 840 846 852 849 832 822 823 823 823 823 824 826 830 829 828 828 827 826 825 824 824 823 822 821 819 817 814 812 811 810 809 809 808 808 809 809 806 802 798 795 794 796 798 798 798 796 794 793 794 795 795 794 794 792 791 789 786 784 783 784 784 784 785 786 786 786 787 787 787 787 787 786 786 785 784 784 784 784 784 785 787 788 789 790 791 792